Location: Unspecified
(51.6250°N, 0.8230°E)
Time: 06:22:46
(UTC+01:00)

CZ-3 Stage 3 - Visible Passes

Search period start: 27 May 2018 00:00
Search period end: 06 June 2018 00:00
Orbit: 420 x 34775 km, 30.9° (Epoch: 26 May)

Date Brightness Start Highest point End Pass type
(mag) Time Alt. Az. Time Alt. Az. Time Alt. Az.
27 May 7.3 02:46:41 10° S 09:53:25 45° SSW 10:07:05 10° SE visible
28 May 8.9 00:34:15 10° SE 05:48:31 42° SSE 06:29:03 10° E visible
29 May 9.3 00:40:12 10° ESE 01:48:09 14° ESE 02:26:17 10° E visible
30 May 7.3 02:30:57 10° S 09:43:35 46° SSW 09:57:27 10° SE visible
31 May 8.9 00:18:19 10° SE 05:38:12 43° SSE 06:19:27 10° E visible
01 Jun 9.3 00:22:48 10° ESE 01:37:41 15° ESE 02:18:08 10° E visible
02 Jun 7.4 02:15:30 10° S 09:33:40 46° SSW 09:47:46 10° SE visible
03 Jun 8.8 00:02:27 10° SE 05:27:48 44° SSE 06:09:48 10° E visible
04 Jun 9.2 00:05:42 10° ESE 01:27:09 16° ESE 02:09:43 10° E visible
05 Jun 7.4 02:00:56 10° S 09:23:43 46° SSW 09:38:04 10° SE visible
